• In Deutschland
  • Länderverzeichnis
  • Für 7 Tage
  • Wassertemperatur
  • Satellitenkarten
  • Wetterkarte
  • Widgets
  • user-avatar
    Anmelden

    Stündliche Wetter Utersum

    Heute, 20 Februar, Dienstag

    Zeit Temperatur Niederschläge Wind Luftdruck Luftfeuchtigkeit
    00:00 +3°C° 0,1 mm 1 m/S 764 mmHg 93%
    01:00 +3°C° 0 mm 1 m/S 764 mmHg 94%
    02:00 +2°C° 0,1 mm 2 m/S 764 mmHg 94%
    03:00 +1°C° 0,1 mm 2 m/S 764 mmHg 94%
    04:00 +1°C° 0,1 mm 2 m/S 764 mmHg 94%
    05:00 0°C° 0 mm 3 m/S 764 mmHg 94%
    06:00 0°C° 0 mm 3 m/S 764 mmHg 94%
    07:00 -1°C° 0 mm 3 m/S 765 mmHg 94%
    08:00 0°C° 0 mm 3 m/S 765 mmHg 90%
    09:00 0°C° 0 mm 4 m/S 765 mmHg 87%
    10:00 0°C° 0 mm 4 m/S 765 mmHg 83%
    11:00 +1°C° 0 mm 4 m/S 766 mmHg 79%
    12:00 +3°C° 0 mm 4 m/S 766 mmHg 76%
    13:00 +3°C° 0 mm 4 m/S 766 mmHg 72%
    14:00 +3°C° 0 mm 4 m/S 766 mmHg 71%
    15:00 +3°C° 0 mm 4 m/S 767 mmHg 71%
    16:00 +1°C° 0 mm 4 m/S 767 mmHg 71%
    17:00 0°C° 0 mm 4 m/S 767 mmHg 74%
    18:00 -1°C° 0 mm 5 m/S 767 mmHg 78%
    19:00 -2°C° 0 mm 5 m/S 767 mmHg 82%
    20:00 -2°C° 0 mm 5 m/S 768 mmHg 83%
    21:00 -3°C° 0 mm 4 m/S 768 mmHg 83%
    22:00 -3°C° 0 mm 4 m/S 769 mmHg 84%
    23:00 -3°C° 0 mm 4 m/S 769 mmHg 84%

    Morgen, 21 Februar, Mittwoch

    Zeit Temperatur Niederschläge Wind Luftdruck Luftfeuchtigkeit
    00:00 -2°C° 0 mm 3 m/S 769 mmHg 84%
    01:00 -2°C° 0 mm 3 m/S 769 mmHg 84%
    02:00 -2°C° 0 mm 3 m/S 769 mmHg 84%
    03:00 -2°C° 0 mm 2 m/S 769 mmHg 84%
    04:00 -2°C° 0 mm 2 m/S 769 mmHg 85%
    05:00 -2°C° 0 mm 2 m/S 769 mmHg 85%
    06:00 -2°C° 0 mm 2 m/S 769 mmHg 85%
    07:00 -2°C° 0 mm 2 m/S 769 mmHg 86%
    08:00 -1°C° 0 mm 2 m/S 769 mmHg 81%
    09:00 +1°C° 0 mm 2 m/S 769 mmHg 77%
    10:00 +2°C° 0 mm 2 m/S 770 mmHg 72%
    11:00 +3°C° 0 mm 1 m/S 770 mmHg 68%
    12:00 +4°C° 0 mm 1 m/S 770 mmHg 64%
    13:00 +5°C° 0 mm 1 m/S 770 mmHg 60%
    14:00 +5°C° 0 mm 1 m/S 769 mmHg 60%
    15:00 +5°C° 0 mm 1 m/S 769 mmHg 61%
    16:00 +4°C° 0 mm 1 m/S 769 mmHg 61%
    17:00 +3°C° 0 mm 1 m/S 769 mmHg 67%
    18:00 +2°C° 0 mm 2 m/S 769 mmHg 72%
    19:00 +1°C° 0 mm 2 m/S 769 mmHg 77%
    20:00 -1°C° 0 mm 2 m/S 769 mmHg 80%
    21:00 -1°C° 0 mm 2 m/S 770 mmHg 82%
    22:00 +1°C° 0 mm 1 m/S 770 mmHg 84%
    23:00 +1°C° 0 mm 1 m/S 770 mmHg 84%

    übermorgen, 22 Februar, Donnerstag

    Zeit Temperatur Niederschläge Wind Luftdruck Luftfeuchtigkeit
    00:00 +1°C° 0 mm 1 m/S 770 mmHg 84%
    01:00 +1°C° 0 mm 1 m/S 770 mmHg 84%
    02:00 +1°C° 0 mm 1 m/S 770 mmHg 84%
    03:00 +1°C° 0 mm 1 m/S 770 mmHg 83%
    04:00 +1°C° 0 mm 1 m/S 770 mmHg 83%
    05:00 +1°C° 0 mm 1 m/S 770 mmHg 83%
    06:00 +1°C° 0 mm 1 m/S 770 mmHg 84%
    07:00 +1°C° 0 mm 1 m/S 770 mmHg 84%
    08:00 +2°C° 0 mm 1 m/S 770 mmHg 83%
    09:00 +2°C° 0 mm 1 m/S 770 mmHg 81%
    10:00 +3°C° 0 mm 1 m/S 771 mmHg 80%
    11:00 +4°C° 0 mm 1 m/S 771 mmHg 78%
    12:00 +4°C° 0 mm 1 m/S 771 mmHg 75%
    13:00 +5°C° 0 mm 1 m/S 771 mmHg 73%
    14:00 +5°C° 0 mm 1 m/S 771 mmHg 74%
    15:00 +5°C° 0 mm 1 m/S 771 mmHg 75%
    16:00 +5°C° 0 mm 1 m/S 771 mmHg 76%
    17:00 +3°C° 0 mm 2 m/S 771 mmHg 79%
    18:00 +2°C° 0 mm 2 m/S 771 mmHg 82%
    19:00 0°C° 0 mm 3 m/S 771 mmHg 85%
    20:00 -1°C° 0 mm 3 m/S 771 mmHg 87%
    21:00 -3°C° 0 mm 4 m/S 771 mmHg 88%
    22:00 -3°C° 0 mm 4 m/S 771 mmHg 90%
    23:00 -4°C° 0 mm 4 m/S 771 mmHg 88%

    23 Februar, Freitag

    Zeit Temperatur Niederschläge Wind Luftdruck Luftfeuchtigkeit
    00:00 -5°C° 0 mm 5 m/S 772 mmHg 86%
    01:00 -5°C° 0 mm 5 m/S 772 mmHg 84%
    02:00 -4°C° 0 mm 4 m/S 772 mmHg 84%
    03:00 -4°C° 0 mm 4 m/S 772 mmHg 84%
    04:00 -4°C° 0 mm 3 m/S 772 mmHg 84%
    05:00 -4°C° 0 mm 3 m/S 772 mmHg 84%
    06:00 -4°C° 0 mm 3 m/S 772 mmHg 83%
    07:00 -4°C° 0 mm 3 m/S 772 mmHg 83%
    08:00 -2°C° 0 mm 3 m/S 772 mmHg 78%
    09:00 -2°C° 0 mm 4 m/S 773 mmHg 73%
    10:00 -2°C° 0 mm 4 m/S 773 mmHg 68%
    11:00 -1°C° 0 mm 4 m/S 773 mmHg 65%
    12:00 0°C° 0 mm 4 m/S 773 mmHg 63%
    13:00 0°C° 0 mm 4 m/S 773 mmHg 60%
    14:00 0°C° 0 mm 4 m/S 773 mmHg 62%
    15:00 0°C° 0 mm 4 m/S 773 mmHg 63%
    16:00 0°C° 0 mm 5 m/S 773 mmHg 65%
    17:00 -1°C° 0 mm 5 m/S 773 mmHg 69%
    18:00 -1°C° 0 mm 5 m/S 773 mmHg 74%
    19:00 -3°C° 0 mm 6 m/S 774 mmHg 78%
    20:00 -3°C° 0 mm 6 m/S 774 mmHg 77%
    21:00 -3°C° 0 mm 7 m/S 774 mmHg 76%
    22:00 -3°C° 0 mm 7 m/S 775 mmHg 76%
    23:00 -4°C° 0 mm 7 m/S 775 mmHg 74%

    24 Februar, Samstag

    Zeit Temperatur Niederschläge Wind Luftdruck Luftfeuchtigkeit
    00:00 -5°C° 0 mm 8 m/S 775 mmHg 71%
    01:00 -5°C° 0 mm 8 m/S 775 mmHg 69%
    02:00 -5°C° 0 mm 8 m/S 776 mmHg 69%
    03:00 -6°C° 0 mm 8 m/S 776 mmHg 68%
    04:00 -6°C° 0 mm 8 m/S 776 mmHg 67%
    05:00 -6°C° 0 mm 8 m/S 776 mmHg 66%
    06:00 -6°C° 0 mm 8 m/S 776 mmHg 65%
    07:00 -6°C° 0 mm 8 m/S 777 mmHg 64%
    08:00 -6°C° 0 mm 8 m/S 777 mmHg 61%
    09:00 -5°C° 0 mm 9 m/S 777 mmHg 59%
    10:00 -5°C° 0 mm 9 m/S 778 mmHg 57%
    11:00 -5°C° 0 mm 9 m/S 778 mmHg 55%
    12:00 -5°C° 0 mm 9 m/S 778 mmHg 54%
    13:00 -4°C° 0 mm 9 m/S 778 mmHg 52%
    14:00 -4°C° 0 mm 9 m/S 778 mmHg 52%
    15:00 -5°C° 0 mm 9 m/S 777 mmHg 52%
    16:00 -5°C° 0 mm 9 m/S 777 mmHg 51%
    17:00 -5°C° 0 mm 9 m/S 777 mmHg 54%
    18:00 -6°C° 0 mm 9 m/S 777 mmHg 56%
    19:00 -8°C° 0 mm 9 m/S 778 mmHg 59%
    20:00 -8°C° 0 mm 9 m/S 778 mmHg 59%
    21:00 -7°C° 0 mm 8 m/S 778 mmHg 59%
    22:00 -7°C° 0 mm 8 m/S 778 mmHg 58%
    23:00 -7°C° 0 mm 8 m/S 778 mmHg 58%

    25 Februar, Sonntag

    Zeit Temperatur Niederschläge Wind Luftdruck Luftfeuchtigkeit
    00:00 -7°C° 0 mm 8 m/S 778 mmHg 58%
    01:00 -7°C° 0 mm 8 m/S 778 mmHg 57%
    02:00 -7°C° 0 mm 8 m/S 778 mmHg 57%
    03:00 -8°C° 0 mm 9 m/S 777 mmHg 57%
    04:00 -9°C° 0 mm 9 m/S 777 mmHg 57%
    05:00 -9°C° 0 mm 9 m/S 777 mmHg 58%
    06:00 -9°C° 0 mm 10 m/S 777 mmHg 59%
    07:00 -9°C° 0 mm 10 m/S 777 mmHg 60%
    08:00 -9°C° 0 mm 10 m/S 777 mmHg 59%
    09:00 -8°C° 0 mm 10 m/S 777 mmHg 57%
    10:00 -8°C° 0 mm 10 m/S 777 mmHg 55%
    11:00 -8°C° 0 mm 10 m/S 777 mmHg 54%
    12:00 -8°C° 0 mm 10 m/S 777 mmHg 53%
    13:00 -7°C° 0 mm 10 m/S 777 mmHg 51%
    14:00 -7°C° 0 mm 11 m/S 777 mmHg 52%
    15:00 -7°C° 0 mm 11 m/S 776 mmHg 52%
    16:00 -8°C° 0 mm 11 m/S 776 mmHg 53%
    17:00 -8°C° 0,1 mm 11 m/S 776 mmHg 54%
    18:00 -8°C° 0,1 mm 11 m/S 776 mmHg 55%
    19:00 -8°C° 0,1 mm 11 m/S 776 mmHg 57%
    20:00 -9°C° 0,1 mm 11 m/S 777 mmHg 58%
    21:00 -9°C° 0,1 mm 11 m/S 777 mmHg 58%
    22:00 -9°C° 0,1 mm 11 m/S 777 mmHg 59%
    23:00 -9°C° 0,1 mm 11 m/S 777 mmHg 60%
    Mehr zeigen